This is the latest recevied weather packets stored in our database for station/object AE5HO. If no packets are shown the sender has not sent any weather packets the latest 10 day(s).
| Time | Temp. | Humidity | Pressure | Rain* | Wind** | Luminosity | Snow |
|---|---|---|---|---|---|---|---|
| 1788139607 | 34.44° C | 42% | 1013.3 hPa | 0 mm | - | 0 W/m² | - |
| 1788139303 | 34.44° C | 42% | 1013.1 hPa | 0 mm | - | 0 W/m² | - |
| 1788139001 | 35° C | 40% | 1012.8 hPa | 0 mm | - | 0 W/m² | - |
| 1788138697 | 35° C | 40% | 1013 hPa | 0 mm | - | 0 W/m² | - |
| 1788138393 | 35° C | 40% | 1012.8 hPa | 0 mm | - | 0 W/m² | - |
| 1788138089 | 35° C | 40% | 1013.1 hPa | 0 mm | - | 0 W/m² | - |
| 1788137788 | 35° C | 39% | 1013 hPa | 0 mm | - | 0 W/m² | - |
| 1788137484 | 35.56° C | 38% | 1012.7 hPa | 0 mm | - | 0 W/m² | - |
| 1788137179 | 35.56° C | 38% | 1012.9 hPa | 0 mm | - | 1 W/m² | - |
| 1788136875 | 35.56° C | 37% | 1012.8 hPa | 0 mm | - | 4 W/m² | - |
| 1788136571 | 36.11° C | 37% | 1012.7 hPa | 0 mm | - | 5 W/m² | - |
| 1788136267 | 36.11° C | 36% | 1013 hPa | 0 mm | - | 9 W/m² | - |
| 1788135965 | 36.67° C | 35% | 1012.9 hPa | 0 mm | - | 12 W/m² | - |
| 1788135660 | 37.22° C | 36% | 1012.7 hPa | 0 mm | - | 28 W/m² | - |
| 1788135356 | 37.78° C | 35% | 1013.1 hPa | 0 mm | - | 39 W/m² | - |
| 1788135052 | 37.78° C | 35% | 1012.8 hPa | 0 mm | - | 44 W/m² | - |
| 1788134748 | 37.78° C | 35% | 1012.8 hPa | 0 mm | - | 27 W/m² | - |
| 1788134448 | 37.22° C | 35% | 1013 hPa | 0 mm | - | 26 W/m² | - |
| 1788134147 | 37.78° C | 35% | 1012.9 hPa | 0 mm | - | 21 W/m² | - |
| 1788133842 | 37.78° C | 34% | 1013.4 hPa | 0 mm | - | 26 W/m² | - |
| 1788133543 | 37.78° C | 34% | 1013.3 hPa | 0 mm | - | 26 W/m² | - |
| 1788133238 | 37.78° C | 34% | 1013 hPa | 0 mm | - | 53 W/m² | - |
| 1788132933 | 38.33° C | 34% | 1013.3 hPa | 0 mm | - | 29 W/m² | - |
| 1788132629 | 38.33° C | 34% | 1013.1 hPa | 0 mm | - | 31 W/m² | - |
| 1788132325 | 38.33° C | 33% | 1013 hPa | 0 mm | - | 27 W/m² | - |
* Rain latest hour (hover to see other rain measurements)
** Current wind speed in m/s (hover to see current wind gust speed)